Location: Chavannes
(47.1090°N, 0.2226°W)
Time: 05:18:25
(UTC+00:00)

Okean-O - Pass Details

Date: 16 October 2021
Orbit: 639 x 640 km, 98.2° (Epoch: 03 December)

Event Time Altitude Azimuth Distance (km) Brightness Sun altitude
Exits shadow 19:45:15 22° 206° (SSW) 1,392 4.4 -26.8°
Maximum altitude 19:47:36 40° 262° (W) 952 3.9 -27.1°
Drops below altitude 10° 19:51:48 10° 332° (NNW) 2,043 5.7 -27.8°
Sets 19:54:08 0° 340° (NNW) 2,958 6.5 -28.2°
